This demonstration page uses our WeatherBlox Daily Observations layout. Learn more.

Left ArrowRight Arrow

36.17497, -115.13722

Hourly Observations for April 7, 2016

Temp ( °F °C ) Dew Point ( °F °C ) Humidity (%) Winds ( mph kmh ) Pressure ( in mb ) Visibility ( mi km ) Precip ( " mm )
12:53 am 00:53 Clear 69 20.6 27 -2.8 21 21 Calm 30.05 1018 10 16.0934 0 0
1:53 am 01:53 Clear 67 19.4 26 -3.3 21 21 WNW 3 6 30.05 1018 10 16.0934 0 0
2:53 am 02:53 Clear 67 19.4 26 -3.3 21 21 N 6 9 30.02 1017 10 16.0934 0 0
3:53 am 03:53 Clear 68 20 23 -5 18 18 NNW 10 17 30.01 1016 10 16.0934 0 0
4:53 am 04:53 Clear 67 19.4 23 -5 19 19 N 8 13 30 1016 10 16.0934 0 0
5:53 am 05:53 Clear 68 20 23 -5 18 18 NNW 12 19 29.98 1015 10 16.0934 0 0
6:53 am 06:53 Sunny 69 20.6 23 -5 17 17 NNW 14 22 29.98 1015 10 16.0934 0 0
7:53 am 07:53 Sunny 67 19.4 28 -2.2 23 23 SSW 5 7 30 1016 10 16.0934 0 0
8:53 am 08:53 Sunny 71 21.7 26 -3.3 19 19 SW 3 6 29.98 1015 10 16.0934 0 0
9:53 am 09:53 Sunny 74 23.3 27 -2.8 17 17 Calm 29.98 1015 10 16.0934 0 0
10:53 am 10:53 Sunny 76 24.4 26 -3.3 16 16 Calm 29.97 1015 10 16.0934 0 0
11:53 am 11:53 Sunny 79 26.1 24 -4.4 13 13 Calm 29.95 1014 10 16.0934 0 0
12:53 pm 12:53 Sunny 82 27.8 22 -5.6 11 11 SSE 5 7 29.91 1013 10 16.0934 0 0
1:53 pm 13:53 Sunny 84 28.9 19 -7.2 9 9 ESE 5 7 29.89 1012 10 16.0934 0 0
2:53 pm 14:53 Sunny 82 27.8 18 -7.8 9 9 S 3 6 29.87 1011 10 16.0934 0 0
3:53 pm 15:53 Sunny 83 28.3 19 -7.2 9 9 SSW 7 11 29.84 1011 10 16.0934 0 0
4:53 pm 16:53 Sunny 83 28.3 20 -6.7 10 10 SW 8 13 29.82 1010 10 16.0934 0 0
5:53 pm 17:53 Sunny 82 27.8 25 -3.9 12 12 SSW 17 28 29.82 1010 10 16.0934 0 0
6:53 pm 18:53 Sunny 80 26.7 31 -0.6 17 17 WSW 9 15 29.82 1010 10 16.0934 0 0
7:53 pm 19:53 Clear 80 26.7 32 0 17 17 W 6 9 29.82 1010 10 16.0934 0 0
8:53 pm 20:53 Clear 79 26.1 31 -0.6 17 17 W 5 7 29.82 1010 10 16.0934 0 0
9:53 pm 21:53 Clear 76 24.4 33 0.6 21 21 SSW 5 7 29.83 1010 10 16.0934 0 0
10:53 pm 22:53 Clear 77 25 32 0 19 19 SSW 7 11 29.84 1010 10 16.0934 0 0
11:53 pm 23:53 Clear 76 24.4 33 0.6 21 21 SW 16 26 29.84 1011 10 16.0934 0 0

Powered by AerisWeather